TimeEDT,TemperatureF,Dew PointF,Humidity,Sea Level PressureIn,VisibilityMPH,Wind Direction,Wind SpeedMPH,Gust SpeedMPH,PrecipitationIn,Events,Conditions,WindDirDegrees,DateUTC
12:07 AM,69.8,68.0,94,29.88,1.8,West,5.8,21.9,0.15,Rain-Thunderstorm,Heavy Thunderstorms and Rain,260,2013-09-01 04:07:00
12:23 AM,69.8,68.0,94,29.86,3.0,South,15.0,-,0.34,Rain-Thunderstorm,Heavy Thunderstorms and Rain,180,2013-09-01 04:23:00
12:53 AM,69.1,68.0,96,29.81,10.0,South,11.5,-,0.35,Rain-Thunderstorm,Light Thunderstorms and Rain,180,2013-09-01 04:53:00
1:28 AM,69.8,66.2,88,29.85,10.0,SSW,10.4,-,0.01,,Mostly Cloudy,210,2013-09-01 05:28:00
1:35 AM,69.8,66.2,88,29.85,10.0,SSW,11.5,-,0.01,Rain-Thunderstorm,Light Rain,200,2013-09-01 05:35:00
1:50 AM,69.8,66.2,88,29.87,10.0,SW,11.5,-,0.01,Rain,Light Rain,220,2013-09-01 05:50:00
1:53 AM,70.0,66.9,90,29.84,10.0,SW,12.7,20.7,0.01,Rain,Light Rain,220,2013-09-01 05:53:00
2:11 AM,69.8,66.2,88,29.85,10.0,South,13.8,-,0.00,Rain-Thunderstorm,Light Rain,190,2013-09-01 06:11:00
2:53 AM,70.0,68.0,93,29.78,10.0,South,15.0,19.6,0.03,,Scattered Clouds,180,2013-09-01 06:53:00
3:53 AM,70.0,66.9,90,29.75,10.0,SSW,6.9,-,N/A,,Clear,210,2013-09-01 07:53:00
4:53 AM,69.1,66.9,93,29.74,10.0,South,3.5,-,N/A,,Clear,180,2013-09-01 08:53:00
5:53 AM,66.9,66.0,97,29.77,10.0,South,3.5,-,N/A,,Clear,180,2013-09-01 09:53:00
6:53 AM,66.9,66.0,97,29.78,10.0,Calm,Calm,-,N/A,,Partly Cloudy,0,2013-09-01 10:53:00
7:12 AM,68.0,66.2,94,29.81,10.0,SW,6.9,-,N/A,,Mostly Cloudy,230,2013-09-01 11:12:00
7:36 AM,68.0,66.2,94,29.83,10.0,WSW,3.5,-,N/A,,Scattered Clouds,250,2013-09-01 11:36:00
7:53 AM,68.0,66.0,93,29.81,10.0,Calm,Calm,-,N/A,,Clear,0,2013-09-01 11:53:00
8:53 AM,69.1,68.0,96,29.81,10.0,Calm,Calm,-,N/A,,Mostly Cloudy,0,2013-09-01 12:53:00
9:53 AM,72.0,68.0,87,29.82,10.0,SW,6.9,-,N/A,,Clear,220,2013-09-01 13:53:00
10:53 AM,75.9,66.9,74,29.82,10.0,SW,6.9,-,N/A,,Scattered Clouds,230,2013-09-01 14:53:00
11:53 AM,80.1,70.0,71,29.81,10.0,WSW,8.1,-,N/A,,Scattered Clouds,240,2013-09-01 15:53:00
12:02 PM,80.6,69.8,70,29.83,10.0,WSW,4.6,-,N/A,,Mostly Cloudy,250,2013-09-01 16:02:00
12:53 PM,80.1,71.1,74,29.81,10.0,SSW,5.8,-,N/A,,Overcast,210,2013-09-01 16:53:00
1:53 PM,80.1,71.1,74,29.83,10.0,WNW,5.8,-,N/A,,Overcast,290,2013-09-01 17:53:00
2:41 PM,82.4,71.6,70,29.82,10.0,Variable,3.5,-,N/A,,Scattered Clouds,0,2013-09-01 18:41:00
2:53 PM,82.9,71.1,67,29.79,10.0,West,5.8,-,N/A,,Scattered Clouds,260,2013-09-01 18:53:00
3:38 PM,82.4,71.6,70,29.82,10.0,Variable,4.6,-,N/A,,Mostly Cloudy,0,2013-09-01 19:38:00
3:53 PM,84.0,71.1,65,29.79,10.0,West,6.9,-,N/A,,Mostly Cloudy,270,2013-09-01 19:53:00
4:15 PM,84.2,69.8,62,29.81,10.0,West,8.1,-,N/A,,Scattered Clouds,270,2013-09-01 20:15:00
4:53 PM,84.9,71.1,63,29.77,10.0,WNW,4.6,-,N/A,,Scattered Clouds,300,2013-09-01 20:53:00
5:53 PM,84.9,69.1,59,29.77,10.0,Variable,3.5,-,N/A,,Clear,0,2013-09-01 21:53:00
6:53 PM,81.0,70.0,69,29.78,10.0,West,3.5,-,N/A,,Clear,270,2013-09-01 22:53:00
7:53 PM,77.0,72.0,84,29.80,10.0,Calm,Calm,-,N/A,,Clear,0,2013-09-01 23:53:00
8:53 PM,73.9,72.0,93,29.80,9.0,Calm,Calm,-,N/A,,Clear,0,2013-09-02 00:53:00
9:53 PM,72.0,70.0,93,29.81,10.0,Calm,Calm,-,N/A,,Clear,0,2013-09-02 01:53:00
10:53 PM,71.1,69.1,93,29.80,8.0,Calm,Calm,-,N/A,,Clear,0,2013-09-02 02:53:00
11:53 PM,69.1,68.0,96,29.81,6.0,Calm,Calm,-,N/A,,Clear,0,2013-09-02 03:53:00